Regional Weather Roundup
Issued by NWS

Home | Current Version | Previous Version | Graphics & Text | Print | Product List | Glossary Off
Versions: 1 2 3 4 5 6 7 8 9 10 11 12 13 14 15 16 17 18 19 20 21 22 23 24 25 26 27 28 29 30 31 32 33 34 35 36 37 38 39 40 41 42 43 44 45 46 47 48 49 50

000
ASUS43 KTOP 190859
RWRKS

WEATHER ROUNDUP FOR KANSAS
NATIONAL WEATHER SERVICE GOODLAND KS
400 AM CDT SAT APR 19 2014

NOTE:  "FAIR" INDICATES FEW OR NO CLOUDS BELOW 12,000 FEET WITH NO
SIGNIFICANT WEATHER AND/OR OBSTRUCTIONS TO VISIBILITY.

KSZ001>006-013>018-027>032-041>047-191000-
NORTHWEST KANSAS

CITY           SKY/WX    TMP DP  RH WIND       PRES   REMARKS
GOODLAND       PTCLDY    51  44  77 S21       29.86F
HAYS           MOCLDY    55  45  67 S25       29.97F
HILL CITY      MOCLDY    55  46  71 S18G25    29.93F
RUSSELL        PTCLDY    56  47  71 S24       29.98F
$$

KSZ061>065-074>080-084>089-191000-
SOUTHWEST KANSAS

CITY           SKY/WX    TMP DP  RH WIND       PRES   REMARKS
DODGE CITY     MOCLDY    52  46  80 S20       30.02F
ELKHART          N/A     56  41  57 S15         N/A
GARDEN CITY    MOCLDY    52  46  80 S21G29    29.96F
GREAT BEND     PTCLDY    55  45  67 S21       30.01F
LIBERAL        CLOUDY    54  45  71 SE20      30.02F
$$

KSZ066>073-081>083-090>101-191000-
SOUTHEAST KANSAS

CITY           SKY/WX    TMP DP  RH WIND       PRES   REMARKS
CHANUTE        CLEAR     46  40  79 SE7       30.13F
COFFEYVILLE    CLEAR     45  40  82 CALM      30.14S
HUTCHINSON     PTCLDY    52  40  63 S10       30.07F
NEWTON         CLEAR     50  36  57 S10       30.12S
PARSONS        CLEAR     42  36  79 CALM      30.14F
WICHITA INTL   PTCLDY    47  39  74 S6        30.09F
WICHITA JABRA  CLEAR     50  40  68 S10       30.10S
WINFIELD       PTCLDY    51  41  68 S8        30.12S
$$

KSZ007>012-019>026-033>040-048>060-102>105-191000-
NORTHEAST KANSAS

CITY           SKY/WX    TMP DP  RH WIND       PRES   REMARKS
CONCORDIA      PTCLDY    54  40  59 S18       30.03F
EMPORIA        CLEAR     46  40  79 S9        30.11F HAZE
LAWRENCE       CLEAR     43  39  86 E5        30.14S
MANHATTAN      CLEAR     55  40  56 S10       30.08F
OLATHE IND     CLEAR     52  40  63 SE7       30.15S
OLATHE EXE     CLEAR     51  40  65 SE7       30.14S
SALINA         CLEAR     56  39  53 S14       30.06F
TOPEKA BILLARD CLEAR     50  41  71 SE5       30.13F
TOPEKA FORBES  CLEAR     47  40  76 SE5       30.12F
$$



USA.gov is the U.S. government's official web portal to all federal, state and local government web resources and services.